Regional Weather Roundup
Issued by NWS

Home | Current Version | Previous Version | Text Only | Print | Product List | Glossary Off
Versions: 1 2 3 4 5 6 7 8 9 10 11 12 13 14 15 16 17 18 19 20 21 22 23 24 25 26 27 28 29 30 31 32 33 34 35 36 37 38 39 40 41 42 43 44 45 46 47

000
ASUS43 KDMX 290707
RWRIA

WEATHER ROUNDUP FOR IOWA
NATIONAL WEATHER SERVICE DES MOINES IA
200 AM CDT SAT AUG 29 2015

NOTE: "FAIR" INDICATES FEW OR NO CLOUDS BELOW 12,000 FEET WITH NO
SIGNIFICANT WEATHER AND/OR OBSTRUCTIONS TO VISIBILITY.

* - THESE STATIONS ARE NOT NWS STATIONS...THUS NOT UNDER NWS
QUALITY CONTROL.  THEY ALSO DO NOT REPORT WEATHER SUCH
AS PRECIPITATION OR FOG.

IAZ001>003-012>014-020>022-031>034-043>046-290800-
   NORTHWEST IOWA

CITY           SKY/WX    TMP DP  RH WIND       PRES   REMARKS
CARROLL *      FOG       61  61 100 N8        29.97S VSB 1
CHEROKEE *     CLOUDY    59  59 100 N3        30.00S
DENISON *      CLOUDY    59  59 100 N10       29.97S FOG
LE MARS *      CLOUDY    61  59  94 NE10      30.02S
ORANGE CITY *  CLOUDY    59  57  94 NE6       30.02S
SHELDON *      CLOUDY    59  57  94 N6        30.01S
SIOUX CITY     CLOUDY    62  57  83 N7        30.01S
SPENCER        CLOUDY    59  56  89 N12       30.01S
STORM LAKE *   CLOUDY    59  59 100 N12       30.00S
$$

IAZ055>058-069>071-079>083-090>094-290800-
   SOUTHWEST IOWA

CITY           SKY/WX    TMP DP  RH WIND       PRES   REMARKS
ATLANTIC *     CLOUDY    63  63 100 N8        29.96R
AUDUBON *      CLOUDY    61  59  94 N9        29.97S FOG
CLARINDA *     CLOUDY    66  66 100 NW7       29.95S
COUNCIL BLFS * CLOUDY    63  63 100 N10G17    29.97S FOG
CRESTON *      CLOUDY    68  68 100 W5        29.94S
HARLAN  *      CLOUDY    61 N/A N/A N8        30.00S FOG
LAMONI         CLOUDY    70  68  93 S6        29.93S
RED OAK *      CLOUDY    66  66 100 VRB7      29.95S FOG
SHENANDOAH *   CLOUDY    66  64  94 NW6       29.96S
$$

IAZ047>049-059>061-072>074-084-290800-
   CENTRAL IOWA

CITY           SKY/WX    TMP DP  RH WIND       PRES   REMARKS
AMES           CLOUDY    63  63 100 N10       29.92R FOG
ANKENY *       CLOUDY    70  70 100 CALM      29.90S
CHARITON *     MOCLDY    70  66  88 S8        29.92S
DES MOINES     FOG       68  66  93 W7        29.90S VSB 1/2
GRINNELL*      CLOUDY    66  64  94 S3        29.92S
KNOXVILLE *    PTCLDY    68  66  94 S8        29.89F
MARSHALLTOWN   MOCLDY    66  65  96 SE5       29.91S FOG
PELLA *        PTCLDY    68  68 100 S6        29.91F
PERRY *        CLOUDY    63  63 100 N7        29.94S FOG
$$

IAZ004>006-015-016-023>025-035-036-290800-
   NORTH CENTRAL IOWA

CITY           SKY/WX    TMP DP  RH WIND       PRES   REMARKS
ALGONA *       CLOUDY    59  59 100 N8        29.99S
CLARION *      CLOUDY    61  59  94 N9        29.96S FOG
ESTHERVILLE    CLOUDY    57  57 100 N8        30.01R
FORT DODGE *   CLOUDY    61  57  88 N6        29.97F
MASON CITY     CLOUDY    60  59  96 N7        29.99R
FOREST CITY *  CLOUDY    59  59 100 N7        29.99R
IOWA FALLS *   CLOUDY    63  63 100 N3        29.94S FOG
$$

IAZ007>011-017>019-026>030-037>042-050>054-066-290800-
   NORTHEAST IOWA

CITY           SKY/WX    TMP DP  RH WIND       PRES   REMARKS
CEDAR RAPIDS   CLOUDY    66  66 100 S8        29.92F
CHARLES CITY * CLOUDY    61  61 100 NE6       29.96S FOG
CLINTON *      CLOUDY    64  63  94 SE14      30.00F
DECORAH *      CLOUDY    61  61 100 E8        29.97R
DUBUQUE        CLOUDY    64  63  96 S20       29.95F
MONTICELLO *   CLOUDY    66  64  94 SE12G20   29.93F
OELWEIN *        N/A     64  64 100 NE3       29.94F FOG
WATERLOO       CLOUDY    65  64  97 NE5       29.92S FOG
$$

IAZ064-065-067-068-078-290800-
   EAST CENTRAL IOWA

CITY           SKY/WX    TMP DP  RH WIND       PRES   REMARKS
DAVENPORT      LGT RAIN  65  63  93 SE10      29.98F
IOWA CITY      CLOUDY    66  66 100 SE7       29.94F
MT. PLEASANT * CLOUDY    70  63  78 SE5       29.95F
MUSCATINE *    CLOUDY    68  63  83 S7        29.95F
QUAD CITIES    CLOUDY    66  62  87 E9        29.97F
$$

IAZ062-063-075>077-085>089-095>099-290800-
   SOUTHEAST IOWA

CITY           SKY/WX    TMP DP  RH WIND       PRES   REMARKS
BURLINGTON     CLOUDY    70  64  81 S10       29.96F
FAIRFIELD *    CLOUDY    68  63  83 S6        29.94S
FORT MADISON * CLOUDY    68  64  88 S9        29.97F
KEOKUK *       CLOUDY    72  64  78 S6        29.96S
OSKALOOSA *    CLOUDY    68  66  94 S5        29.92F
CENTERVILLE *  MOCLDY    68  66  94 S8        29.94F
OTTUMWA        CLOUDY    69  66  90 S8        29.91F
WASHINGTON *     N/A    N/A N/A N/A MISG        N/A
$$

ABBREVIATIONS USED IN REMARKS
   TC - TEMPERATURES IN CELSIUS
  WCI - WIND CHILL INDEX
   HX - HEAT INDEX
  VSB - VISIBILITY
$$




USA.gov is the U.S. government's official web portal to all federal, state and local government web resources and services.